Tracking 31033 objects as of 15-Jul-2025
HD Live streaming from Space Station
objects crossing your sky now

ARIANE 5 DEB (SYLDA)

Track ARIANE 5 DEB (SYLDA) now!
10-day predictions


NORAD ID: 39081
Int'l Code: 2013-006D
Perigee: 183.8 km
Apogee: 12,859.0 km
Inclination: 6.2 °
Period: 242.8 minutes
Semi major axis: 12892 km
RCS: 0.003 m2 (small)
Launch date: February 7, 2013
Source: France (FR)
Launch site: FRENCH GUIANA (FRGUI)

Note: This is SATELLITE DEBRIS
Your satellite tracking list
Your tracking list is empty




NASA's NSSDC Master Catalog

Two Line Element Set (TLE):
1 39081U 13006D   25195.32352872  .00592698  57455-7  49737-2 0  9999
2 39081   6.1820 158.0531 4915761  18.6188 354.3527  5.93064757150717
Source of the keplerian elements: AFSPC